SCP
0 0 0 0 0 0 0 0 0 0 0 0 0 0 0 0 0 0 0 0 0 0 -0 -0 -0 -0 -0 -0 -1 -1 -1 -0 -0 -0 -0 -0 -0 -0 -0 0 0 0 0 0 0 0 0 0 -0
0 0 0 0 0 0 0 0 0 0 0 0 0 0 0 0 0 0 -0 0 0 0 0 -0 0 -0 -0 -0 -0 -0 -0 -0 -0 -0 -0 -0 -0 -0 0 0 0 0 0 0 0 0 0 -0 -0
0 0 0 0 0 0 0 0 0 0 0 0 0 0 0 0 0 0 0 -0 -0 0 -0 0 0 0 -0 -0 -0 -0 -0 -0 -0 -0 -0 -0 -0 -0 -0 0 0 0 0 0 0 -0 -0 -0 -0
0 0 0 0 0 0 0 0 0 0 0 0 0 0 0 0 0 0 0 -0 -0 -0 -0 -0 -0 -0 0 -0 -0 -0 -0 -0 -0 -0 -0 -0 -0 -0 -0 0 0 0 0 0 -0 -0 -0 -0 -0
0 0 0 0 0 0 0 0 0 0 0 0 0 0 0 0 0 0 -0 -0 -0 -0 -0 -0 -0 -0 0 0 0 -0 -0 -0 -0 -0 -0 -0 -0 -0 -0 -0 -0 0 0 -0 -0 -0 -0 -0 -0
0 0 0 0 0 0 0 0 0 0 0 0 0 0 0 0 0 0 0 0 0 0 0 -0 -0 0 0 0 0 0 0 0 0 0 0 0 -0 -0 -0 -0 -0 -0 -0 -0 -0 -0 -0 -0 -0
0 0 0 0 0 0 0 0 0 0 0 0 0 0 0 0 0 0 0 0 0 0 0 0 0 0 0 0 0 0 0 0 0 0 0 0 0 0 0 -0 -0 -0 -0 -0 -0 -0 -0 0 0
0 0 0 0 0 0 0 0 0 0 0 0 0 0 0 0 0 0 0 0 0 0 0 0 0 0 0 0 0 0 0 0 0 0 0 0 0 0 0 0 -0 -0 -0 -0 -0 0 0 0 0
0 0 0 0 0 0 0 0 0 0 0 0 0 0 0 0 -0 -0 0 0 0 0 0 0 0 0 0 0 0 0 0 0 0 0 0 0 0 0 0 0 -0 0 0 0 0 0 0 0 0
0 0 0 0 0 0 0 0 0 0 0 0 0 0 0 0 -0 -0 0 0 0 0 0 0 0 0 0 0 0 0 0 0 0 0 0 0 0 0 0 0 0 0 0 0 0 0 0 0 0
0 0 0 0 0 0 0 0 0 0 0 0 0 0 0 0 0 -0 0 0 0 0 0 0 0 0 0 0 0 0 0 0 0 0 0 0 0 0 0 0 0 0 0 0 0 0 0 0 0
0 0 0 0 0 0 0 0 0 0 0 0 0 0 0 0 0 0 0 0 0 0 0 0 0 0 0 0 0 0 0 0 0 0 0 0 0 0 0 0 0 0 0 0 0 0 0 0 0
0 0 0 0 0 0 0 0 0 0 0 0 0 0 0 0 0 0 0 1 1 0 0 0 0 0 0 0 0 0 0 0 0 0 0 0 0 0 0 0 0 0 0 0 0 0 0 0 0
0 0 0 0 0 0 0 0 0 0 0 0 0 0 0 0 0 0 0 0 1 1 1 0 0 1 0 0 0 0 0 0 0 0 0 0 0 0 0 0 0 0 0 0 0 0 0 0 0
0 0 0 0 0 0 0 0 0 0 0 0 0 0 0 0 0 0 0 0 0 1 1 1 1 1 1 0 0 0 0 0 0 0 0 0 0 0 0 0 0 0 0 0 0 0 0 0 0
0 0 0 0 0 0 0 0 0 0 0 0 0 0 0 0 0 0 0 0 0 0 1 1 1 1 1 1 1 0 0 0 0 0 0 0 0 0 0 0 0 0 0 0 0 0 0 0 0
0 0 0 0 0 0 0 0 0 0 0 0 0 0 0 0 0 0 0 0 0 0 1 1 1 1 1 2 1 1 1 0 0 0 0 0 0 0 0 0 0 0 0 0 0 0 0 0 0
0 0 0 0 0 -0 0 0 0 0 0 0 0 0 0 0 0 0 0 0 0 0 1 1 2 2 2 2 2 1 1 1 0 0 0 0 0 0 0 0 0 0 0 0 0 0 0 0 0
0 0 0 0 0 0 0 0 0 0 0 0 0 0 0 0 0 0 0 0 0 1 1 2 2 4 4 2 2 2 1 1 1 0 0 0 0 0 0 0 0 0 0 0 0 1 1 1 1
0 0 0 0 0 0 0 0 0 0 0 0 0 0 0 0 0 0 0 0 1 2 1 3 2 4 4 3 3 2 1 1 1 0 0 0 1 1 1 1 0 0 0 0 1 1 1 2 2
0 0 0 0 0 0 0 0 0 0 0 0 0 0 0 0 0 0 0 0 0 2 2 3 4 5 5 3 4 2 1 1 0 0 1 1 1 1 1 1 1 1 0 0 1 2 2 3 3
0 0 0 0 0 0 0 0 0 0 0 0 0 0 0 0 0 0 0 0 0 1 3 2 5 4 4 5 4 2 2 1 0 1 1 1 1 1 1 1 1 1 0 0 1 3 4 2 3
0 0 0 0 0 0 0 0 0 0 0 0 0 0 0 0 0 0 0 0 0 0 1 2 4 6 5 4 4 5 2 1 1 0 1 1 1 1 1 1 1 1 1 2 2 0 0 0 0
0 0 0 0 0 0 0 0 0 0 0 0 0 0 0 0 0 0 0 0 0 0 1 2 3 5 4 3 3 4 3 2 1 1 1 1 1 1 1 2 2 3 2 0 0 0 0 0 0
0 0 0 0 0 0 0 0 0 0 0 0 0 0 0 0 0 0 0 0 0 0 0 3 2 4 5 3 2 2 2 4 4 3 1 1 1 1 3 3 5 5 2 0 0 0 0 0 -0
0 0 0 0 0 0 0 0 0 -0 0 0 0 0 0 0 0 0 0 0 0 0 0 1 2 3 6 5 3 2 2 2 3 3 2 2 2 3 5 6 4 2 0 0 0 0 0 0 0
0 0 0 0 0 -0 0 0 0 0 0 0 0 0 0 0 0 0 0 0 0 0 0 1 2 2 3 6 5 2 3 3 3 3 5 3 5 8 5 3 2 1 1 1 0 0 0 0 0
-0 0 0 0 0 0 0 0 0 0 0 0 0 0 0 0 0 0 0 0 0 0 0 1 2 3 4 5 9 2 4 3 5 5 5 9 6 4 3 2 1 1 1 1 1 0 0 0 0
0 -0 0 0 0 0 0 0 0 0 0 0 0 0 0 0 0 0 0 0 0 0 0 0 1 3 4 4 4 5 5 4 4 5 9 7 4 3 2 1 1 1 1 1 1 0 0 0 0
-0 -0 0 0 0 0 0 0 0 0 0 0 0 0 0 0 0 0 0 0 0 0 0 0 0 2 3 4 5 7 6 4 8 9 6 4 4 2 1 1 1 1 1 0 0 0 0 0 0
Wind_Speed_500mb
13 9 7 8 13 14 27 20 17 17 14 5 4 10 10 15 11 7 3 29 41 53 61 60 59 56 54 51 52 57 54 48 43 35 30 26 28 35 40 42 44 43 42 39 35 27 24 24 25
10 9 9 12 17 29 26 29 25 16 8 7 14 14 16 16 7 3 16 26 47 52 61 63 60 56 54 51 53 58 56 50 43 35 30 28 30 38 42 43 42 40 38 38 33 26 22 23 24
15 16 17 11 26 37 32 23 24 24 8 12 8 7 11 2 5 4 12 35 52 53 62 64 61 57 53 50 53 59 57 51 43 36 32 31 35 42 43 41 40 37 37 36 32 26 23 24 25
13 14 15 23 43 42 44 10 14 26 21 10 5 12 6 4 3 6 21 46 52 54 58 61 60 58 55 54 58 59 53 48 44 38 35 36 39 43 42 40 40 36 37 34 30 25 24 24 23
20 16 23 35 52 49 36 33 25 26 16 18 8 12 15 5 5 14 30 48 51 55 54 62 60 58 56 57 58 56 52 48 43 40 38 40 42 42 40 39 38 35 34 32 28 26 25 23 20
25 21 26 41 48 46 42 32 34 38 36 35 23 29 12 4 7 18 36 46 48 52 53 65 60 57 56 55 56 54 51 48 45 43 43 44 44 42 39 38 37 35 33 30 28 26 24 21 19
36 24 39 46 45 46 42 36 37 45 43 42 31 24 6 6 10 23 38 46 50 50 51 64 63 58 56 55 55 54 51 49 47 47 48 46 44 42 39 36 34 33 30 28 26 24 23 21 19
36 24 47 46 42 49 38 39 43 45 49 50 36 21 30 16 14 26 38 47 50 51 52 57 64 62 58 56 55 53 52 50 50 50 50 46 42 39 36 34 33 32 29 27 26 25 23 21 21
29 21 38 52 47 36 22 34 40 28 39 25 30 29 6 12 22 30 42 49 51 54 54 55 57 58 55 56 57 53 51 51 52 52 50 44 41 39 36 34 32 31 29 27 28 26 25 22 20
31 32 48 41 33 32 36 31 31 21 37 41 38 21 7 17 23 32 44 55 59 59 59 61 58 58 55 50 57 56 56 55 56 57 53 45 34 35 31 34 32 30 29 29 29 29 26 22 14
31 52 34 33 25 38 43 43 29 33 36 28 41 43 19 18 23 30 38 47 57 57 58 60 62 60 57 52 51 49 48 49 52 56 56 38 34 34 31 30 33 31 31 27 29 29 25 19 19
38 46 53 49 30 37 38 38 39 42 52 41 30 33 16 22 23 27 35 45 54 59 61 60 61 61 59 52 52 49 49 49 49 50 58 42 36 35 31 27 26 26 26 24 24 22 22 25 23
47 44 45 37 47 50 48 44 40 49 48 42 47 45 43 38 31 29 29 39 51 61 63 64 64 62 65 60 53 50 49 50 47 50 57 44 38 36 33 30 29 27 26 26 24 23 21 21 22
23 28 47 52 51 49 44 47 47 46 48 58 58 59 61 56 49 42 36 39 53 61 66 66 67 65 68 62 58 53 50 48 49 48 53 57 45 41 35 32 30 28 27 25 24 22 21 21 20
37 37 37 39 38 32 29 48 60 64 62 49 37 43 63 67 65 62 55 48 49 60 66 69 68 66 71 70 58 54 49 47 47 44 54 58 54 48 40 33 31 28 26 27 26 25 25 21 18
26 37 40 37 46 49 35 55 7 3 39 66 69 61 40 48 59 60 58 57 53 53 66 71 71 70 70 76 65 53 49 47 46 44 45 56 55 51 50 36 33 30 28 26 23 22 23 21 20
35 37 43 36 30 30 45 40 37 32 21 29 35 53 62 62 49 49 48 57 58 57 62 72 74 72 71 70 64 58 52 51 45 44 42 53 53 50 45 35 31 37 28 27 25 25 25 22 19
37 44 38 42 32 35 41 40 35 27 21 23 25 26 32 50 56 45 43 48 55 58 64 72 77 75 72 65 62 58 55 54 48 47 46 51 54 52 51 34 33 38 27 25 28 29 24 21 19
41 46 44 42 25 34 34 40 38 37 36 42 43 41 41 39 39 41 38 42 53 55 61 76 81 83 79 71 69 65 66 56 52 50 51 54 54 52 53 41 36 36 27 28 26 23 22 18 17
45 49 48 43 37 35 39 51 45 45 45 57 57 55 52 52 50 44 38 37 50 57 61 74 78 84 87 76 74 64 62 61 67 62 59 58 56 56 51 45 32 34 29 34 30 26 19 19 19
46 46 45 47 39 38 38 49 48 49 56 61 65 68 68 64 59 54 46 39 43 58 59 69 79 84 86 79 73 63 54 48 49 49 47 53 56 53 52 46 38 33 31 25 27 19 18 17 9
49 45 47 43 37 33 39 38 37 28 36 42 56 65 76 76 71 65 55 47 42 53 57 62 76 79 79 88 79 79 69 64 56 51 44 42 52 50 48 45 39 34 23 25 14 13 18 16 7
34 41 30 41 43 39 47 31 33 35 36 41 40 55 61 71 73 76 66 57 47 48 57 61 66 80 77 79 85 92 78 58 51 44 45 46 46 49 42 39 33 30 22 22 36 29 16 10 11
35 36 34 37 30 35 49 43 37 32 38 38 36 42 51 58 61 69 67 61 55 50 55 58 65 71 76 74 77 90 86 70 52 53 48 41 38 49 45 40 37 32 38 36 33 24 18 10 21
29 23 11 15 20 30 41 37 39 39 44 36 32 36 38 48 50 53 59 60 59 55 59 64 63 68 72 69 70 73 82 82 75 61 50 45 43 40 49 49 46 46 45 37 26 10 3 10 18
32 31 16 20 12 28 43 19 32 32 30 50 56 41 34 35 40 43 47 51 60 58 61 67 61 67 71 73 69 66 72 70 77 76 51 50 43 48 48 54 56 50 43 35 21 7 17 18 14
19 33 36 21 36 14 13 26 31 29 26 31 27 36 41 31 28 31 33 36 44 50 56 66 64 65 71 82 58 72 70 67 58 66 62 46 49 59 52 55 53 47 38 32 19 26 34 29 28
36 16 13 17 10 12 20 32 18 16 12 14 20 26 27 27 26 33 37 38 30 35 43 58 62 65 66 74 103 92 76 65 60 63 64 66 63 51 48 50 46 44 38 34 33 38 38 34 26
11 27 17 13 22 20 23 5 22 9 15 10 12 13 6 3 10 16 26 32 34 26 31 45 60 63 66 72 80 64 59 60 59 59 70 71 55 50 42 42 49 46 49 44 42 41 36 27 23
11 6 29 12 27 27 30 14 19 7 6 8 7 9 15 17 17 16 17 20 32 34 29 34 49 59 59 57 58 57 56 59 65 72 67 64 58 51 44 49 52 56 56 53 45 44 31 26 27
Wind_Direction_500mb
240 237 176 227 242 231 246 234 268 215 204 99 328 280 298 327 295 348 327 180 166 170 178 180 179 179 178 177 178 180 179 176 170 165 160 161 162 162 162 158 158 159 161 163 159 154 154 153 147
202 179 180 245 244 238 233 224 219 199 106 324 285 266 253 253 240 126 124 164 167 170 177 182 180 181 179 178 179 181 179 177 174 172 171 170 170 166 166 161 160 162 164 168 169 168 164 161 154
180 188 231 227 236 238 242 198 240 227 254 251 271 271 311 44 162 196 201 171 164 167 175 184 180 182 181 180 178 179 179 179 178 179 178 179 175 168 169 168 165 166 168 169 173 175 170 164 160
178 197 238 242 237 232 245 251 243 243 230 216 240 259 252 229 258 219 189 166 167 167 171 183 181 182 183 180 178 179 181 182 182 184 182 182 174 170 170 171 175 174 174 175 178 180 173 168 164
195 234 240 231 244 248 237 256 209 236 251 214 221 257 275 262 246 180 174 170 169 169 171 180 181 182 184 183 182 183 184 186 187 187 185 180 173 171 172 173 178 181 181 182 183 179 175 172 166
200 243 237 239 240 240 249 223 250 238 242 243 263 254 263 174 166 176 171 172 170 171 172 179 181 183 185 187 189 188 189 190 191 189 186 179 174 174 173 174 176 181 185 184 181 179 178 177 177
234 215 240 248 252 244 233 224 238 240 243 244 240 267 267 179 170 171 172 172 172 172 172 179 179 183 188 190 192 193 193 194 193 190 185 180 177 178 178 179 181 182 185 183 182 184 185 185 188
229 251 250 245 249 251 249 239 237 238 243 245 247 247 241 177 171 169 172 174 174 175 175 177 180 181 187 192 195 195 196 195 193 189 185 182 182 182 182 184 184 186 187 187 189 190 194 195 202
225 235 238 238 234 247 239 251 236 244 254 211 214 247 333 184 164 168 172 179 181 180 181 180 179 182 182 188 192 194 196 196 193 188 188 185 186 186 186 189 188 189 189 193 196 198 201 204 212
213 231 241 253 258 247 257 234 243 235 238 237 224 211 190 178 182 183 186 187 187 186 185 183 183 182 181 183 191 192 194 194 191 190 189 187 184 183 180 195 190 190 193 197 201 204 205 210 225
221 241 248 251 272 255 258 255 239 246 249 227 227 221 216 202 197 199 202 201 196 191 190 188 184 184 182 184 185 184 189 189 189 191 192 183 186 187 178 192 190 192 193 199 204 208 210 223 226
244 245 247 261 266 245 250 257 253 249 247 251 237 253 212 221 214 212 210 204 200 199 196 193 189 187 184 186 185 186 187 189 188 191 195 192 185 192 183 187 189 186 197 194 203 212 210 224 233
235 251 252 245 257 254 265 256 262 256 253 250 251 247 245 243 232 224 216 213 205 205 201 197 195 192 188 185 187 189 188 190 190 193 198 197 190 194 190 191 190 193 195 206 209 209 221 236 243
262 263 258 254 251 254 255 262 253 249 252 251 247 248 248 245 238 233 225 217 211 208 206 201 200 197 194 190 190 190 190 193 192 196 202 204 197 203 197 198 198 200 199 205 210 218 225 236 242
257 262 254 243 238 242 255 259 248 250 246 241 240 247 243 241 240 238 232 227 218 214 208 205 203 201 196 198 197 195 196 195 195 198 207 209 207 211 198 201 204 208 208 206 212 223 232 236 247
249 248 253 244 236 236 230 258 255 171 226 240 240 237 236 236 238 237 232 229 224 216 211 206 205 204 200 203 202 199 202 198 200 200 207 210 213 216 215 210 213 213 211 217 221 229 237 244 253
242 253 248 241 228 243 216 258 244 242 259 246 236 234 240 245 239 233 230 226 220 217 210 207 204 203 203 200 200 200 202 202 205 205 206 213 214 216 216 212 217 220 217 220 224 231 236 249 260
248 240 238 257 248 214 244 240 258 211 229 238 243 240 244 242 237 232 232 223 218 214 208 206 203 202 202 201 200 203 206 209 209 210 210 218 217 220 221 214 217 229 218 221 226 227 240 242 259
278 279 275 275 264 270 261 271 266 260 249 256 252 246 244 241 239 232 235 228 218 212 205 204 203 202 199 199 200 202 203 204 210 213 215 221 220 218 224 219 229 228 216 218 231 229 240 245 261
262 260 258 261 260 260 265 265 260 254 256 252 254 251 249 248 241 237 233 231 217 212 206 206 204 203 203 201 200 206 210 213 220 222 223 221 220 220 226 219 221 231 221 230 227 231 229 241 251
259 252 258 259 259 247 261 266 261 258 257 253 249 248 250 246 243 236 232 229 219 214 209 208 204 205 207 201 202 200 204 207 211 213 216 218 219 223 225 226 217 225 221 228 224 235 238 254 285
250 254 263 263 254 259 251 268 264 259 253 237 239 238 240 243 241 238 231 228 222 215 213 211 210 206 209 210 207 203 201 204 210 210 210 210 216 213 219 221 222 222 214 205 200 232 236 265 7
267 264 272 258 261 255 252 252 261 253 255 250 246 239 240 238 235 238 232 226 227 216 213 213 212 209 206 208 207 215 208 207 204 204 207 200 207 206 209 214 212 211 184 191 203 210 219 170 94
264 270 270 269 260 245 240 248 254 256 251 242 242 246 237 236 235 236 235 229 222 217 212 211 208 210 206 206 206 214 218 203 196 200 197 195 198 204 201 202 197 180 193 203 213 233 258 288 281
239 247 250 238 226 236 223 229 244 250 251 253 256 257 247 241 233 231 230 226 219 213 208 210 206 207 205 204 207 210 215 214 212 211 197 188 187 189 191 193 184 199 211 216 223 150 70 101 143
278 234 251 252 286 237 227 220 236 241 257 256 253 254 268 250 230 224 228 228 223 215 208 204 203 204 203 204 209 213 211 212 216 219 212 208 188 185 194 190 198 206 213 214 194 114 151 164 206
270 232 241 266 277 256 232 234 250 249 247 253 247 236 241 235 241 237 232 225 224 217 209 204 202 203 203 211 215 220 213 206 203 214 209 202 187 194 202 199 206 213 220 215 187 182 182 201 196
238 248 236 221 259 220 236 251 251 165 239 332 230 229 238 236 249 244 234 231 220 213 208 205 201 198 197 198 201 215 209 206 203 209 205 197 198 196 194 197 203 217 222 188 201 196 198 211 221
251 227 227 283 268 263 241 119 63 41 316 134 67 75 96 264 287 265 243 239 231 221 212 207 203 198 194 193 197 198 195 193 191 191 197 201 195 191 189 197 200 207 193 194 201 201 205 220 227
266 259 273 230 236 244 282 269 119 99 23 32 86 26 340 315 306 301 274 258 237 229 216 210 204 204 200 194 191 190 187 183 186 191 196 193 187 183 182 187 191 190 193 204 207 198 215 216 229
Wind_Speed_850mb
13 9 7 8 13 14 27 20 17 17 14 5 4 10 10 15 11 7 3 29 41 53 61 60 59 56 54 51 52 57 54 48 43 35 30 26 28 35 40 42 44 43 42 39 35 27 24 24 25
10 9 9 12 17 29 26 29 25 16 8 7 14 14 16 16 7 3 16 26 47 52 61 63 60 56 54 51 53 58 56 50 43 35 30 28 30 38 42 43 42 40 38 38 33 26 22 23 24
15 16 17 11 26 37 32 23 24 24 8 12 8 7 11 2 5 4 12 35 52 53 62 64 61 57 53 50 53 59 57 51 43 36 32 31 35 42 43 41 40 37 37 36 32 26 23 24 25
13 14 15 23 43 42 44 10 14 26 21 10 5 12 6 4 3 6 21 46 52 54 58 61 60 58 55 54 58 59 53 48 44 38 35 36 39 43 42 40 40 36 37 34 30 25 24 24 23
20 16 23 35 52 49 36 33 25 26 16 18 8 12 15 5 5 14 30 48 51 55 54 62 60 58 56 57 58 56 52 48 43 40 38 40 42 42 40 39 38 35 34 32 28 26 25 23 20
25 21 26 41 48 46 42 32 34 38 36 35 23 29 12 4 7 18 36 46 48 52 53 65 60 57 56 55 56 54 51 48 45 43 43 44 44 42 39 38 37 35 33 30 28 26 24 21 19
36 24 39 46 45 46 42 36 37 45 43 42 31 24 6 6 10 23 38 46 50 50 51 64 63 58 56 55 55 54 51 49 47 47 48 46 44 42 39 36 34 33 30 28 26 24 23 21 19
36 24 47 46 42 49 38 39 43 45 49 50 36 21 30 16 14 26 38 47 50 51 52 57 64 62 58 56 55 53 52 50 50 50 50 46 42 39 36 34 33 32 29 27 26 25 23 21 21
29 21 38 52 47 36 22 34 40 28 39 25 30 29 6 12 22 30 42 49 51 54 54 55 57 58 55 56 57 53 51 51 52 52 50 44 41 39 36 34 32 31 29 27 28 26 25 22 20
31 32 48 41 33 32 36 31 31 21 37 41 38 21 7 17 23 32 44 55 59 59 59 61 58 58 55 50 57 56 56 55 56 57 53 45 34 35 31 34 32 30 29 29 29 29 26 22 14
31 52 34 33 25 38 43 43 29 33 36 28 41 43 19 18 23 30 38 47 57 57 58 60 62 60 57 52 51 49 48 49 52 56 56 38 34 34 31 30 33 31 31 27 29 29 25 19 19
38 46 53 49 30 37 38 38 39 42 52 41 30 33 16 22 23 27 35 45 54 59 61 60 61 61 59 52 52 49 49 49 49 50 58 42 36 35 31 27 26 26 26 24 24 22 22 25 23
47 44 45 37 47 50 48 44 40 49 48 42 47 45 43 38 31 29 29 39 51 61 63 64 64 62 65 60 53 50 49 50 47 50 57 44 38 36 33 30 29 27 26 26 24 23 21 21 22
23 28 47 52 51 49 44 47 47 46 48 58 58 59 61 56 49 42 36 39 53 61 66 66 67 65 68 62 58 53 50 48 49 48 53 57 45 41 35 32 30 28 27 25 24 22 21 21 20
37 37 37 39 38 32 29 48 60 64 62 49 37 43 63 67 65 62 55 48 49 60 66 69 68 66 71 70 58 54 49 47 47 44 54 58 54 48 40 33 31 28 26 27 26 25 25 21 18
26 37 40 37 46 49 35 55 7 3 39 66 69 61 40 48 59 60 58 57 53 53 66 71 71 70 70 76 65 53 49 47 46 44 45 56 55 51 50 36 33 30 28 26 23 22 23 21 20
35 37 43 36 30 30 45 40 37 32 21 29 35 53 62 62 49 49 48 57 58 57 62 72 74 72 71 70 64 58 52 51 45 44 42 53 53 50 45 35 31 37 28 27 25 25 25 22 19
37 44 38 42 32 35 41 40 35 27 21 23 25 26 32 50 56 45 43 48 55 58 64 72 77 75 72 65 62 58 55 54 48 47 46 51 54 52 51 34 33 38 27 25 28 29 24 21 19
41 46 44 42 25 34 34 40 38 37 36 42 43 41 41 39 39 41 38 42 53 55 61 76 81 83 79 71 69 65 66 56 52 50 51 54 54 52 53 41 36 36 27 28 26 23 22 18 17
45 49 48 43 37 35 39 51 45 45 45 57 57 55 52 52 50 44 38 37 50 57 61 74 78 84 87 76 74 64 62 61 67 62 59 58 56 56 51 45 32 34 29 34 30 26 19 19 19
46 46 45 47 39 38 38 49 48 49 56 61 65 68 68 64 59 54 46 39 43 58 59 69 79 84 86 79 73 63 54 48 49 49 47 53 56 53 52 46 38 33 31 25 27 19 18 17 9
49 45 47 43 37 33 39 38 37 28 36 42 56 65 76 76 71 65 55 47 42 53 57 62 76 79 79 88 79 79 69 64 56 51 44 42 52 50 48 45 39 34 23 25 14 13 18 16 7
34 41 30 41 43 39 47 31 33 35 36 41 40 55 61 71 73 76 66 57 47 48 57 61 66 80 77 79 85 92 78 58 51 44 45 46 46 49 42 39 33 30 22 22 36 29 16 10 11
35 36 34 37 30 35 49 43 37 32 38 38 36 42 51 58 61 69 67 61 55 50 55 58 65 71 76 74 77 90 86 70 52 53 48 41 38 49 45 40 37 32 38 36 33 24 18 10 21
29 23 11 15 20 30 41 37 39 39 44 36 32 36 38 48 50 53 59 60 59 55 59 64 63 68 72 69 70 73 82 82 75 61 50 45 43 40 49 49 46 46 45 37 26 10 3 10 18
32 31 16 20 12 28 43 19 32 32 30 50 56 41 34 35 40 43 47 51 60 58 61 67 61 67 71 73 69 66 72 70 77 76 51 50 43 48 48 54 56 50 43 35 21 7 17 18 14
19 33 36 21 36 14 13 26 31 29 26 31 27 36 41 31 28 31 33 36 44 50 56 66 64 65 71 82 58 72 70 67 58 66 62 46 49 59 52 55 53 47 38 32 19 26 34 29 28
36 16 13 17 10 12 20 32 18 16 12 14 20 26 27 27 26 33 37 38 30 35 43 58 62 65 66 74 103 92 76 65 60 63 64 66 63 51 48 50 46 44 38 34 33 38 38 34 26
11 27 17 13 22 20 23 5 22 9 15 10 12 13 6 3 10 16 26 32 34 26 31 45 60 63 66 72 80 64 59 60 59 59 70 71 55 50 42 42 49 46 49 44 42 41 36 27 23
11 6 29 12 27 27 30 14 19 7 6 8 7 9 15 17 17 16 17 20 32 34 29 34 49 59 59 57 58 57 56 59 65 72 67 64 58 51 44 49 52 56 56 53 45 44 31 26 27
Wind_Direction_850mb
240 237 176 227 242 231 246 234 268 215 204 99 328 280 298 327 295 348 327 180 166 170 178 180 179 179 178 177 178 180 179 176 170 165 160 161 162 162 162 158 158 159 161 163 159 154 154 153 147
202 179 180 245 244 238 233 224 219 199 106 324 285 266 253 253 240 126 124 164 167 170 177 182 180 181 179 178 179 181 179 177 174 172 171 170 170 166 166 161 160 162 164 168 169 168 164 161 154
180 188 231 227 236 238 242 198 240 227 254 251 271 271 311 44 162 196 201 171 164 167 175 184 180 182 181 180 178 179 179 179 178 179 178 179 175 168 169 168 165 166 168 169 173 175 170 164 160
178 197 238 242 237 232 245 251 243 243 230 216 240 259 252 229 258 219 189 166 167 167 171 183 181 182 183 180 178 179 181 182 182 184 182 182 174 170 170 171 175 174 174 175 178 180 173 168 164
195 234 240 231 244 248 237 256 209 236 251 214 221 257 275 262 246 180 174 170 169 169 171 180 181 182 184 183 182 183 184 186 187 187 185 180 173 171 172 173 178 181 181 182 183 179 175 172 166
200 243 237 239 240 240 249 223 250 238 242 243 263 254 263 174 166 176 171 172 170 171 172 179 181 183 185 187 189 188 189 190 191 189 186 179 174 174 173 174 176 181 185 184 181 179 178 177 177
234 215 240 248 252 244 233 224 238 240 243 244 240 267 267 179 170 171 172 172 172 172 172 179 179 183 188 190 192 193 193 194 193 190 185 180 177 178 178 179 181 182 185 183 182 184 185 185 188
229 251 250 245 249 251 249 239 237 238 243 245 247 247 241 177 171 169 172 174 174 175 175 177 180 181 187 192 195 195 196 195 193 189 185 182 182 182 182 184 184 186 187 187 189 190 194 195 202
225 235 238 238 234 247 239 251 236 244 254 211 214 247 333 184 164 168 172 179 181 180 181 180 179 182 182 188 192 194 196 196 193 188 188 185 186 186 186 189 188 189 189 193 196 198 201 204 212
213 231 241 253 258 247 257 234 243 235 238 237 224 211 190 178 182 183 186 187 187 186 185 183 183 182 181 183 191 192 194 194 191 190 189 187 184 183 180 195 190 190 193 197 201 204 205 210 225
221 241 248 251 272 255 258 255 239 246 249 227 227 221 216 202 197 199 202 201 196 191 190 188 184 184 182 184 185 184 189 189 189 191 192 183 186 187 178 192 190 192 193 199 204 208 210 223 226
244 245 247 261 266 245 250 257 253 249 247 251 237 253 212 221 214 212 210 204 200 199 196 193 189 187 184 186 185 186 187 189 188 191 195 192 185 192 183 187 189 186 197 194 203 212 210 224 233
235 251 252 245 257 254 265 256 262 256 253 250 251 247 245 243 232 224 216 213 205 205 201 197 195 192 188 185 187 189 188 190 190 193 198 197 190 194 190 191 190 193 195 206 209 209 221 236 243
262 263 258 254 251 254 255 262 253 249 252 251 247 248 248 245 238 233 225 217 211 208 206 201 200 197 194 190 190 190 190 193 192 196 202 204 197 203 197 198 198 200 199 205 210 218 225 236 242
257 262 254 243 238 242 255 259 248 250 246 241 240 247 243 241 240 238 232 227 218 214 208 205 203 201 196 198 197 195 196 195 195 198 207 209 207 211 198 201 204 208 208 206 212 223 232 236 247
249 248 253 244 236 236 230 258 255 171 226 240 240 237 236 236 238 237 232 229 224 216 211 206 205 204 200 203 202 199 202 198 200 200 207 210 213 216 215 210 213 213 211 217 221 229 237 244 253
242 253 248 241 228 243 216 258 244 242 259 246 236 234 240 245 239 233 230 226 220 217 210 207 204 203 203 200 200 200 202 202 205 205 206 213 214 216 216 212 217 220 217 220 224 231 236 249 260
248 240 238 257 248 214 244 240 258 211 229 238 243 240 244 242 237 232 232 223 218 214 208 206 203 202 202 201 200 203 206 209 209 210 210 218 217 220 221 214 217 229 218 221 226 227 240 242 259
278 279 275 275 264 270 261 271 266 260 249 256 252 246 244 241 239 232 235 228 218 212 205 204 203 202 199 199 200 202 203 204 210 213 215 221 220 218 224 219 229 228 216 218 231 229 240 245 261
262 260 258 261 260 260 265 265 260 254 256 252 254 251 249 248 241 237 233 231 217 212 206 206 204 203 203 201 200 206 210 213 220 222 223 221 220 220 226 219 221 231 221 230 227 231 229 241 251
259 252 258 259 259 247 261 266 261 258 257 253 249 248 250 246 243 236 232 229 219 214 209 208 204 205 207 201 202 200 204 207 211 213 216 218 219 223 225 226 217 225 221 228 224 235 238 254 285
250 254 263 263 254 259 251 268 264 259 253 237 239 238 240 243 241 238 231 228 222 215 213 211 210 206 209 210 207 203 201 204 210 210 210 210 216 213 219 221 222 222 214 205 200 232 236 265 7
267 264 272 258 261 255 252 252 261 253 255 250 246 239 240 238 235 238 232 226 227 216 213 213 212 209 206 208 207 215 208 207 204 204 207 200 207 206 209 214 212 211 184 191 203 210 219 170 94
264 270 270 269 260 245 240 248 254 256 251 242 242 246 237 236 235 236 235 229 222 217 212 211 208 210 206 206 206 214 218 203 196 200 197 195 198 204 201 202 197 180 193 203 213 233 258 288 281
239 247 250 238 226 236 223 229 244 250 251 253 256 257 247 241 233 231 230 226 219 213 208 210 206 207 205 204 207 210 215 214 212 211 197 188 187 189 191 193 184 199 211 216 223 150 70 101 143
278 234 251 252 286 237 227 220 236 241 257 256 253 254 268 250 230 224 228 228 223 215 208 204 203 204 203 204 209 213 211 212 216 219 212 208 188 185 194 190 198 206 213 214 194 114 151 164 206
270 232 241 266 277 256 232 234 250 249 247 253 247 236 241 235 241 237 232 225 224 217 209 204 202 203 203 211 215 220 213 206 203 214 209 202 187 194 202 199 206 213 220 215 187 182 182 201 196
238 248 236 221 259 220 236 251 251 165 239 332 230 229 238 236 249 244 234 231 220 213 208 205 201 198 197 198 201 215 209 206 203 209 205 197 198 196 194 197 203 217 222 188 201 196 198 211 221
251 227 227 283 268 263 241 119 63 41 316 134 67 75 96 264 287 265 243 239 231 221 212 207 203 198 194 193 197 198 195 193 191 191 197 201 195 191 189 197 200 207 193 194 201 201 205 220 227
266 259 273 230 236 244 282 269 119 99 23 32 86 26 340 315 306 301 274 258 237 229 216 210 204 204 200 194 191 190 187 183 186 191 196 193 187 183 182 187 191 190 193 204 207 198 215 216 229